EDT,Max TemperatureF,Mean TemperatureF,Min TemperatureF,Max Dew PointF,MeanDew PointF,Min DewpointF,Max Humidity, Mean Humidity, Min Humidity, Max Sea Level PressureIn, Mean Sea Level PressureIn, Min Sea Level PressureIn, Max VisibilityMiles, Mean VisibilityMiles, Min VisibilityMiles, Max Wind SpeedMPH, Mean Wind SpeedMPH, Max Gust SpeedMPH,PrecipitationIn, CloudCover, Events, WindDirDegrees
2013-3-1,36,33,29,31,28,25,96,80,64,29.72,29.64,29.54,10,8,1,13,8,20,0.02,8,Snow,303
2013-3-2,30,27,23,25,22,21,92,81,69,29.73,29.70,29.67,10,10,6,16,10,21,T,8,Snow,298
2013-3-3,26,23,19,21,17,14,96,82,68,29.73,29.67,29.61,10,6,1,20,11,28,T,8,Snow,298
2013-3-4,26,24,21,19,18,16,88,78,68,29.86,29.76,29.66,10,9,4,26,15,36,T,8,,300
2013-3-5,40,32,24,24,21,18,84,69,54,30.06,29.97,29.83,10,10,10,18,7,25,0.00,5,,320
2013-3-6,37,31,25,30,27,23,92,78,64,30.06,30.00,29.96,10,8,2,25,11,39,T,8,Snow,68
2013-3-7,34,31,27,28,25,21,92,81,69,30.09,30.05,30.01,10,4,1,18,9,28,0.10,8,Snow,349
2013-3-8,34,29,24,27,24,19,92,78,63,30.23,30.04,29.96,10,4,0,13,6,20,0.18,6,Fog-Snow,314
2013-3-9,49,35,21,24,20,18,88,60,31,30.32,30.27,30.22,10,10,10,10,5,15,0.00,0,,276
2013-3-10,50,35,19,27,21,15,96,60,24,30.36,30.28,30.22,10,10,9,14,3,21,0.00,0,,172
2013-3-11,49,40,31,38,30,25,82,62,42,30.20,30.13,30.02,10,10,10,20,7,30,0.00,1,,157
2013-3-12,50,42,34,48,43,30,93,88,82,30.00,29.81,29.64,10,7,1,15,10,33,0.96,8,Rain,184
2013-3-13,41,35,29,29,25,19,85,65,44,29.81,29.79,29.74,10,10,10,20,11,28,T,5,,300
2013-3-14,29,25,20,22,14,5,81,64,47,29.87,29.80,29.76,10,7,2,33,16,47,T,8,Snow,297
2013-3-15,34,26,17,28,20,6,92,67,41,29.89,29.72,29.61,10,6,0,22,11,36,0.04,6,Fog-Snow,263
2013-3-16,30,23,16,20,13,10,75,59,43,29.89,29.81,29.72,10,10,10,18,5,29,0.00,5,,293
2013-3-17,31,24,16,13,7,4,73,53,32,30.30,30.08,29.90,10,10,10,24,10,32,T,1,,293
2013-3-18,35,23,10,22,10,-4,88,55,22,30.43,30.24,30.06,10,6,1,17,5,22,0.12,4,Snow,103
2013-3-19,33,29,25,30,26,20,92,84,75,30.04,29.77,29.63,10,4,0,22,9,33,0.25,8,Fog-Snow,41
2013-3-20,32,25,18,18,16,14,84,69,53,29.80,29.76,29.72,10,10,9,23,10,29,T,6,,267
2013-3-21,32,22,11,15,9,6,88,62,36,29.79,29.71,29.62,10,10,10,15,6,22,0.00,3,,286
2013-3-22,30,23,15,25,20,7,85,71,57,29.79,29.68,29.63,10,4,0,24,11,31,T,7,Fog-Snow,273
2013-3-23,34,31,27,23,20,16,84,67,49,29.84,29.76,29.71,10,10,9,32,16,46,T,8,,285
2013-3-24,39,33,26,21,20,19,75,62,48,29.86,29.80,29.73,10,10,10,17,7,22,0.00,4,,313
2013-3-25,40,33,26,24,21,19,75,62,48,29.73,29.60,29.48,10,10,10,16,7,23,0.00,4,,51
2013-3-26,42,34,26,26,21,16,78,58,37,29.81,29.69,29.56,10,10,10,20,5,25,0.00,5,,322
2013-3-27,47,36,24,29,24,17,85,64,42,29.91,29.84,29.80,10,10,10,20,9,28,T,4,,285
2013-3-28,43,38,32,30,29,27,85,71,57,30.06,29.95,29.88,10,9,2,15,8,20,T,8,Snow,304
2013-3-29,47,40,32,30,28,25,78,64,49,30.09,30.06,30.01,10,10,10,16,9,23,0.00,5,,290
2013-3-30,51,40,28,28,22,17,85,56,27,30.10,30.07,30.02,10,10,10,21,7,28,0.00,1,,298
2013-3-31,52,38,24,36,25,20,92,61,29,30.10,29.96,29.72,10,10,8,21,5,32,0.12,3,Rain,140